Flag for Germany Weather past 2 weeks in Ettlingen, Baden-Württemberg, Germany

Now
73 °F

Scattered showers. Broken clouds.


Feels Like: 76 °F
Forecast: 62 / 70 °F
Wind: 2 mph from North

Location: Karlsruhe - Baden Wurttemberg

Current Time: Jul 28, 2014 at 5:33:24 PM

Latest Report: Jul 28, 2014 at 5:20 PM


Visibility: N/A

Pressure: 29.77 "Hg

Humidity: 65%

Dew point: 61 °F

Location of EttlingenLocation

Historic Weather in Ettlingen — Graph

°F

Ettlingen temperature yesterday

Maximum temperature yesterday: 82 °F (at 3:50 PM)
Minimum temperature yesterday: 61 °F (at 4:50 AM)
Average temperature yesterday: 72 °F

Past Weeks' High & Low Weather Summary

 TemperatureHumidityPressure
High93 °F (Jul 19, 5:20 PM)94% (Jul 14, 7:20 AM)30.18 "Hg (Jul 14, 7:20 AM)
Low57 °F (Jul 15, 6:20 AM)24% (Jul 18, 4:20 PM)29.80 "Hg (Jul 13, 5:20 PM)
Average72 °F65%29.96 "Hg
* Reported Jul 13 4:20 PM — Jul 28 4:20 PM, Ettlingen, Weather by CustomWeather, © 2014

Note: Actual official high and low records may vary slightly from our data, if they occured in-between our weather recording intervals... More about our weather records

Advertising

Ettlingen weather history for previous 24 hours

 ConditionsComfort  
Time TempWeatherWind HumidityBarometerVisibility
4:20 PM
Jul 28
73 °FScattered showers. Broken clouds.3 mph74%29.80 "HgN/A
3:50 PM72 °FThundershowers. Partly sunny.6 mph83%29.83 "Hg6 mi
3:20 PM70 °FThundershowers. Partly sunny.5 mph83%29.83 "Hg6 mi
2:50 PM70 °FThundershowers. Partly sunny.8 mph83%29.83 "Hg6 mi
2:20 PM73 °FThunderstorms. Partly sunny.10 mph74%29.83 "Hg6 mi
1:50 PM77 °FThundershowers. Broken clouds.3 mph57%29.83 "HgN/A
1:20 PM79 °FScattered showers. Partly sunny.5 mph58%29.83 "HgN/A
12:50 PM79 °FPassing clouds.6 mph58%29.86 "HgN/A
12:20 PM79 °FSunny.3 mph58%29.86 "Hg10 mi
11:50 AM77 °FPassing clouds.5 mph57%29.86 "HgN/A
11:20 AM75 °FPassing clouds.6 mph65%29.86 "HgN/A
10:50 AM73 °FPassing clouds.5 mph69%29.86 "HgN/A
10:20 AM73 °FPassing clouds.5 mph69%29.89 "HgN/A
9:50 AM73 °FSunny.1 mph69%29.89 "Hg10 mi
9:20 AM72 °FSunny.1 mph73%29.89 "Hg10 mi
8:50 AM70 °FSunny.1 mph78%29.89 "Hg10 mi
8:20 AM68 °FScattered showers. Clear.1 mph83%29.89 "HgN/A
7:50 AM68 °FSunny.1 mph83%29.89 "Hg10 mi
7:20 AM66 °FSunny.No wind88%29.89 "Hg10 mi
6:50 AM66 °FClear.1 mph83%29.89 "Hg10 mi
6:20 AM66 °FClear.1 mph83%29.89 "Hg10 mi
5:50 AM66 °FClear.No wind83%29.89 "Hg10 mi
5:20 AM66 °FClear.3 mph83%29.89 "Hg10 mi
10:50 PM
Jul 27
73 °FClear.6 mph65%29.98 "Hg10 mi
10:20 PM75 °FClear.6 mph61%29.98 "Hg10 mi
9:50 PM75 °FSunny.7 mph61%29.98 "Hg10 mi
9:20 PM75 °FSunny.5 mph57%29.98 "Hg10 mi
8:50 PM75 °FSunny.6 mph57%29.98 "Hg10 mi
8:20 PM77 °FSunny.2 mph54%29.95 "Hg10 mi
7:50 PM79 °FPassing clouds.5 mph51%29.95 "HgN/A
7:20 PM79 °FSunny.3 mph48%29.95 "Hg10 mi
6:50 PM81 °FPassing clouds.5 mph42%29.95 "HgN/A
6:20 PM81 °FSunny.3 mph39%29.95 "Hg10 mi
5:50 PM82 °FPassing clouds.6 mph40%29.95 "HgN/A
5:20 PM82 °FSunny.3 mph37%29.95 "Hg10 mi
Weather by CustomWeather, © 2014

See weather overviewHow to use our weather pages